DLH4FA EDDN-EDDK

Flight info

Callsign DLH4FA
Flight time 0h 39m
Altitude 22000
Route ERETO1G ERETO DCT LONLI L984 ASKIK T840 GULKO
Aircraft A320/M-SDE3FGHIRWY/LB1

Departure

Time 2026-04-25 17:32
Airport Nuremberg Airport (EDDN)

Arrival

Time 2026-04-25 18:11
Airport Cologne Bonn Airport (EDDK)
Time Latitude Longitude Altitude Speed Heading
2026-04-25 16:56 49.49524 11.07724 1025 ft 0 kts 188°
2026-04-25 17:21 49.49530 11.07726 1026 ft 4 kts 188°
2026-04-25 17:21 49.49556 11.07732 1026 ft 3 kts 189°
2026-04-25 17:21 49.49576 11.07735 1024 ft 4 kts 158°
2026-04-25 17:22 49.49591 11.07710 1027 ft 3 kts 99°
2026-04-25 17:22 49.49593 11.07699 1026 ft 4 kts 98°
2026-04-25 17:22 49.49596 11.07664 1026 ft 0 kts 98°
2026-04-25 17:25 49.49594 11.07681 1025 ft 8 kts 98°
2026-04-25 17:25 49.49578 11.07857 1026 ft 25 kts 97°
2026-04-25 17:25 49.49552 11.08123 1028 ft 21 kts 101°
2026-04-25 17:25 49.49529 11.08334 1028 ft 18 kts 99°
2026-04-25 17:26 49.49555 11.08394 1032 ft 5 kts 11°
2026-04-25 17:26 49.49606 11.08421 1034 ft 10 kts 44°
2026-04-25 17:26 49.49609 11.08502 1035 ft 6 kts 98°
2026-04-25 17:26 49.49603 11.08558 1044 ft 6 kts 98°
2026-04-25 17:27 49.49591 11.08681 1036 ft 15 kts 98°
2026-04-25 17:27 49.49583 11.08762 1037 ft 14 kts 99°
2026-04-25 17:27 49.49570 11.08900 1038 ft 12 kts 98°
2026-04-25 17:27 49.49566 11.08939 1038 ft 11 kts 98°
2026-04-25 17:28 49.49542 11.09183 1042 ft 16 kts 99°
2026-04-25 17:28 49.49527 11.09328 1045 ft 12 kts 98°
2026-04-25 17:28 49.49557 11.09416 1047 ft 7 kts 54°
2026-04-25 17:28 49.49580 11.09464 1049 ft 4 kts 54°
2026-04-25 17:29 49.49590 11.09485 1049 ft 1 kts 54°
2026-04-25 17:30 49.49590 11.09486 1049 ft 1 kts 54°
2026-04-25 17:30 49.49622 11.09553 1051 ft 12 kts 50°
2026-04-25 17:30 49.49685 11.09586 1053 ft 9 kts 350°
2026-04-25 17:31 49.49701 11.09518 1052 ft 4 kts 278°
2026-04-25 17:31 49.49702 11.09507 1052 ft 0 kts 278°
2026-04-25 17:31 49.49749 11.09038 1044 ft 92 kts 278°
2026-04-25 17:31 49.49886 11.07636 1027 ft 169 kts 278°
2026-04-25 17:32 49.50081 11.05621 1474 ft 190 kts 278°
2026-04-25 17:32 49.50240 11.03659 2754 ft 184 kts 281°
2026-04-25 17:32 49.50433 11.01709 3886 ft 187 kts 281°
2026-04-25 17:32 49.50640 10.99705 4989 ft 192 kts 281°
2026-04-25 17:33 49.50855 10.97666 6122 ft 197 kts 282°
2026-04-25 17:33 49.51086 10.95502 7121 ft 212 kts 281°
2026-04-25 17:33 49.51374 10.93260 8214 ft 220 kts 294°
2026-04-25 17:33 49.52387 10.91505 9393 ft 225 kts 333°
2026-04-25 17:34 49.53919 10.91151 10507 ft 233 kts
2026-04-25 17:34 49.55551 10.91496 11576 ft 238 kts
2026-04-25 17:34 49.57197 10.91889 12634 ft 241 kts
2026-04-25 17:34 49.58879 10.92210 13689 ft 244 kts
2026-04-25 17:35 49.60582 10.92444 14607 ft 248 kts
2026-04-25 17:35 49.62317 10.92606 15493 ft 251 kts 359°
2026-04-25 17:35 49.64050 10.92711 16339 ft 254 kts 358°
2026-04-25 17:35 49.65833 10.92789 17188 ft 258 kts 357°
2026-04-25 17:36 49.67640 10.92955 18020 ft 264 kts
2026-04-25 17:36 49.69453 10.93589 18802 ft 271 kts 13°
2026-04-25 17:36 49.71212 10.94751 19552 ft 278 kts 24°
2026-04-25 17:36 49.72842 10.96424 20313 ft 285 kts 34°
2026-04-25 17:37 49.74369 10.98413 21063 ft 287 kts 31°
2026-04-25 17:37 49.76123 10.99784 21761 ft 281 kts
2026-04-25 17:37 49.78040 11.00015 22439 ft 276 kts 348°
2026-04-25 17:37 49.79841 10.99091 23117 ft 274 kts 328°
2026-04-25 17:38 49.81464 10.97502 23777 ft 277 kts 326°
2026-04-25 17:38 49.81992 10.96978 23963 ft 278 kts 326°
2026-04-25 17:38 49.84729 10.94261 24884 ft 283 kts 326°
2026-04-25 17:38 49.86395 10.92609 25389 ft 285 kts 326°
2026-04-25 17:39 49.88076 10.90944 25878 ft 287 kts 326°
2026-04-25 17:39 49.89767 10.89263 26326 ft 290 kts 326°
2026-04-25 17:39 49.91474 10.87563 26772 ft 292 kts 326°
2026-04-25 17:39 49.93189 10.85856 27238 ft 293 kts 326°
2026-04-25 17:40 49.94928 10.84173 27669 ft 296 kts 327°
2026-04-25 17:40 49.96710 10.82542 28116 ft 298 kts 328°
2026-04-25 17:40 49.98490 10.80955 28525 ft 300 kts 328°
2026-04-25 17:40 50.00314 10.79339 28959 ft 303 kts 328°
2026-04-25 17:41 50.02128 10.77570 29080 ft 314 kts 322°
2026-04-25 17:41 50.03796 10.75273 29095 ft 328 kts 313°
2026-04-25 17:41 50.05249 10.72437 29096 ft 343 kts 304°
2026-04-25 17:41 50.06405 10.69098 29092 ft 359 kts 294°
2026-04-25 17:42 50.06980 10.66587 29091 ft 370 kts 288°
2026-04-25 17:42 50.07459 10.62570 29093 ft 386 kts 277°
2026-04-25 17:42 50.07507 10.58325 29092 ft 400 kts 273°
2026-04-25 17:42 50.07492 10.53988 29075 ft 411 kts 273°
2026-04-25 17:43 50.07458 10.44895 29093 ft 428 kts 272°
2026-04-25 17:43 50.07414 10.35468 29095 ft 442 kts 272°
2026-04-25 17:44 50.07351 10.25785 29091 ft 450 kts 272°
2026-04-25 17:44 50.07617 10.16129 28916 ft 446 kts 284°
2026-04-25 17:45 50.08507 10.11528 28645 ft 444 kts 295°
2026-04-25 17:45 50.09528 10.08785 28456 ft 442 kts 306°
2026-04-25 17:45 50.11961 10.03599 28094 ft 444 kts 303°
2026-04-25 17:45 50.13544 9.99447 27829 ft 446 kts 299°
2026-04-25 17:46 50.14962 9.95137 27565 ft 447 kts 296°
2026-04-25 17:46 50.16276 9.90727 27303 ft 448 kts 295°
2026-04-25 17:46 50.17552 9.86288 27040 ft 449 kts 295°
2026-04-25 17:46 50.18843 9.81843 26786 ft 450 kts 296°
2026-04-25 17:47 50.20149 9.77479 26538 ft 446 kts 296°
2026-04-25 17:47 50.21464 9.73206 26290 ft 427 kts 297°
2026-04-25 17:47 50.22759 9.69084 26032 ft 419 kts 297°
2026-04-25 17:47 50.24049 9.65010 25767 ft 417 kts 297°
2026-04-25 17:48 50.26605 9.56923 25300 ft 412 kts 297°
2026-04-25 17:48 50.27865 9.52899 25060 ft 411 kts 297°
2026-04-25 17:48 50.29113 9.48880 24821 ft 410 kts 296°
2026-04-25 17:49 50.30350 9.44871 24590 ft 409 kts 296°
2026-04-25 17:49 50.31569 9.40905 24361 ft 407 kts 296°
2026-04-25 17:49 50.32796 9.36912 24142 ft 406 kts 296°
2026-04-25 17:49 50.34018 9.32933 24083 ft 405 kts 296°
2026-04-25 17:50 50.35241 9.28955 24103 ft 406 kts 296°
2026-04-25 17:50 50.36461 9.24979 24104 ft 400 kts 296°
2026-04-25 17:50 50.37636 9.21149 24105 ft 379 kts 296°
2026-04-25 17:50 50.38750 9.17525 24107 ft 361 kts 296°
2026-04-25 17:51 50.39810 9.14050 24107 ft 344 kts 296°
2026-04-25 17:51 50.40819 9.10729 24107 ft 332 kts 296°
2026-04-25 17:51 50.41810 9.07476 24108 ft 330 kts 296°
2026-04-25 17:51 50.42799 9.04237 24108 ft 329 kts 296°
2026-04-25 17:52 50.43773 9.01042 23997 ft 331 kts 296°
2026-04-25 17:52 50.44441 8.98846 23742 ft 329 kts 296°
2026-04-25 17:52 50.45735 8.94572 23174 ft 325 kts 296°
2026-04-25 17:52 50.46701 8.91376 22742 ft 323 kts 296°
2026-04-25 17:53 50.47658 8.88197 22314 ft 321 kts 296°
2026-04-25 17:53 50.48612 8.85035 21894 ft 319 kts 296°
2026-04-25 17:53 50.49559 8.81896 21478 ft 317 kts 296°
2026-04-25 17:53 50.50500 8.78777 21065 ft 315 kts 296°
2026-04-25 17:54 50.51434 8.75677 20660 ft 313 kts 296°
2026-04-25 17:54 50.52362 8.72596 20273 ft 311 kts 296°
2026-04-25 17:54 50.53283 8.69527 19878 ft 310 kts 296°
2026-04-25 17:54 50.54187 8.66508 19494 ft 308 kts 296°
2026-04-25 17:55 50.55095 8.63472 19138 ft 306 kts 296°
2026-04-25 17:55 50.56003 8.60443 18797 ft 305 kts 297°
2026-04-25 17:55 50.56902 8.57436 18451 ft 303 kts 297°
2026-04-25 17:55 50.57795 8.54442 18055 ft 301 kts 296°
2026-04-25 17:56 50.58681 8.51461 17648 ft 300 kts 296°
2026-04-25 17:56 50.59561 8.48496 17256 ft 298 kts 296°
2026-04-25 17:56 50.60436 8.45555 16871 ft 297 kts 296°
2026-04-25 17:56 50.61309 8.42613 16480 ft 295 kts 296°
2026-04-25 17:57 50.62167 8.39691 16091 ft 294 kts 296°
2026-04-25 17:57 50.63013 8.36804 15721 ft 293 kts 296°
2026-04-25 17:57 50.63862 8.33894 15358 ft 292 kts 296°
2026-04-25 17:57 50.64435 8.31930 15102 ft 292 kts 296°
2026-04-25 17:58 50.65553 8.28087 14613 ft 291 kts 296°
2026-04-25 17:58 50.66395 8.25191 14261 ft 290 kts 296°
2026-04-25 17:58 50.67233 8.22306 13903 ft 289 kts 296°
2026-04-25 17:58 50.68068 8.19427 13503 ft 288 kts 296°
2026-04-25 17:59 50.68898 8.16555 13108 ft 287 kts 296°
2026-04-25 17:59 50.69724 8.13695 12720 ft 286 kts 296°
2026-04-25 17:59 50.70546 8.10846 12329 ft 285 kts 296°
2026-04-25 17:59 50.71364 8.08009 11951 ft 283 kts 296°
2026-04-25 18:00 50.72167 8.05221 11577 ft 282 kts 296°
2026-04-25 18:00 50.72976 8.02413 11220 ft 280 kts 296°
2026-04-25 18:00 50.73773 7.99644 11125 ft 276 kts 296°
2026-04-25 18:00 50.74559 7.96877 11118 ft 277 kts 293°
2026-04-25 18:01 50.75028 7.93919 10889 ft 279 kts 278°
2026-04-25 18:01 50.74956 7.90846 10542 ft 284 kts 263°
2026-04-25 18:01 50.74492 7.87780 10064 ft 288 kts 259°
2026-04-25 18:01 50.74007 7.84726 9717 ft 284 kts 259°
2026-04-25 18:02 50.73530 7.81719 9461 ft 278 kts 259°
2026-04-25 18:02 50.73071 7.78823 9328 ft 266 kts 259°
2026-04-25 18:02 50.72634 7.76070 9195 ft 256 kts 260°
2026-04-25 18:02 50.72203 7.73350 8979 ft 249 kts 260°
2026-04-25 18:03 50.71795 7.70746 8648 ft 247 kts 260°
2026-04-25 18:03 50.71381 7.68118 8304 ft 246 kts 260°
2026-04-25 18:03 50.70967 7.65504 7972 ft 245 kts 260°
2026-04-25 18:03 50.70556 7.62910 7622 ft 243 kts 260°
2026-04-25 18:04 50.70145 7.60320 7271 ft 242 kts 260°
2026-04-25 18:04 50.69741 7.57780 7149 ft 236 kts 260°
2026-04-25 18:04 50.69341 7.55262 7155 ft 237 kts 260°
2026-04-25 18:04 50.68940 7.52731 7158 ft 238 kts 260°
2026-04-25 18:05 50.68544 7.50234 7160 ft 237 kts 260°
2026-04-25 18:05 50.68236 7.47701 7149 ft 230 kts 272°
2026-04-25 18:05 50.68407 7.45282 7035 ft 219 kts 289°
2026-04-25 18:05 50.68857 7.42971 6610 ft 222 kts 290°
2026-04-25 18:06 50.69325 7.40656 6145 ft 220 kts 295°
2026-04-25 18:06 50.70146 7.38698 5668 ft 212 kts 316°
2026-04-25 18:06 50.71219 7.37133 5196 ft 209 kts 319°
2026-04-25 18:06 50.72305 7.35597 4709 ft 209 kts 319°
2026-04-25 18:07 50.73391 7.34046 4038 ft 216 kts 319°
2026-04-25 18:07 50.74521 7.32424 3403 ft 220 kts 318°
2026-04-25 18:07 50.75643 7.30812 2994 ft 214 kts 318°
2026-04-25 18:07 50.76718 7.29265 2688 ft 204 kts 318°
2026-04-25 18:08 50.77744 7.27788 2411 ft 194 kts 318°
2026-04-25 18:08 50.78710 7.26397 2182 ft 181 kts 318°
2026-04-25 18:08 50.79623 7.25081 1915 ft 174 kts 318°
2026-04-25 18:08 50.80475 7.23853 1684 ft 155 kts 319°
2026-04-25 18:09 50.81216 7.22784 1488 ft 140 kts 317°
2026-04-25 18:09 50.81913 7.21778 1302 ft 134 kts 317°
2026-04-25 18:09 50.82600 7.20787 1121 ft 133 kts 318°
2026-04-25 18:09 50.82831 7.20454 1057 ft 133 kts 318°
2026-04-25 18:10 50.83968 7.18822 745 ft 131 kts 319°
2026-04-25 18:10 50.84641 7.17846 578 ft 130 kts 320°
2026-04-25 18:10 50.85310 7.16878 421 ft 130 kts 317°
2026-04-25 18:10 50.85966 7.15918 311 ft 124 kts 318°
2026-04-25 18:11 50.86525 7.15116 279 ft 93 kts 318°
2026-04-25 18:11 50.86945 7.14504 258 ft 73 kts 317°
2026-04-25 18:11 50.87227 7.14091 246 ft 34 kts 310°
2026-04-25 18:11 50.87313 7.13757 239 ft 33 kts 282°
2026-04-25 18:12 50.87350 7.13468 233 ft 13 kts 303°
2026-04-25 18:12 50.87424 7.13354 233 ft 16 kts 317°
2026-04-25 18:12 50.87511 7.13228 233 ft 18 kts 317°
2026-04-25 18:12 50.87623 7.13065 233 ft 24 kts 317°
2026-04-25 18:13 50.87747 7.12885 233 ft 25 kts 317°
2026-04-25 18:13 50.87784 7.12702 232 ft 17 kts 277°
2026-04-25 18:13 50.87879 7.12614 232 ft 18 kts
2026-04-25 18:14 50.88065 7.12399 235 ft 20 kts 300°
2026-04-25 18:14 50.88148 7.12211 233 ft 22 kts 305°
2026-04-25 18:14 50.88167 7.12089 233 ft 11 kts 226°
2026-04-25 18:14 50.88133 7.12052 232 ft 5 kts 215°
2026-04-25 18:15 50.88123 7.12040 232 ft 0 kts 216°